Location: Corralito
(10.2667°N, 66.9500°W)
Time: 19:24:13
(UTC+00:00)

Lacrosse 5 rocket - Pass Details

Date: 23 March 2023
Orbit: 456 x 605 km, 57.0° (Epoch: 09 June)

Event Time Altitude Azimuth Distance (km) Brightness Sun altitude
Rises 23:27:32 0° 239° (WSW) 2,860 5.9 -12.9°
Reaches altitude 10° 23:30:20 10° 256° (WSW) 1,950 5.4 -13.5°
Maximum altitude 23:33:35 20° 303° (WNW) 1,405 4.2 -14.3°
Drops below altitude 10° 23:36:48 10° 350° (N) 1,913 4.2 -15.1°
Sets 23:39:32 0° 8° (N) 2,789 4.9 -15.8°
